Weather History for KSBM - October, 2012

Change the Weather History Date:

Saturday, October 13, 2012

  Actual Average (KMTW) Record (KMTW)
Temperature  
Mean Temperature 48 °F -  
Max Temperature 63 °F 57 °F - (-1)
Min Temperature 34 °F 40 °F - (-1)
Degree Days  
Heating Degree Days 18    
Moisture  
Dew Point 48 °F    
Average Humidity 92    
Maximum Humidity 100    
Minimum Humidity 86    
Precipitation  
Precipitation 1.44 in - - ()
Sea Level Pressure  
Sea Level Pressure 29.97 in    
Wind  
Wind Speed 7 mph (South)    
Max Wind Speed 15 mph    
Max Gust Speed 23 mph    
Visibility 4 miles    
Events Fog , Rain , Thunderstorm    
Averages and records for this station are not official NWS values.
T = Trace of Precipitation, MM = Missing Value Source: NWS Daily Summary

Daily Weather History Graph

Daily Weather History Graph

Search for Another Location

Airport or City:

Trip Planner

Search our weather history database for the weather conditions in past years. The results will help you decide how hot, cold, wet, or windy it might be!

Date:

Astronomy

Oct. 13, 2012 Rise Set
Actual Time 7:03 AM CDT 6:10 PM CDT
Civil Twilight 6:34 AM CDT 6:39 PM CDT
Nautical Twilight 6:01 AM CDT 7:12 PM CDT
Astronomical Twilight 5:28 AM CDT 7:45 PM CDT
Moon 4:50 AM CDT (10/13) 4:55 PM CDT (10/13)
Length of Visible Light 12h 04m
Length of Day
11h 06m
Waning Crescent, 5% of the Moon is Illuminated
Oct 13
Waning Crescent
Oct 15
New
Oct 21
First Quarter
Oct 29
Full
Nov 6
Last Quarter

Hourly Weather History & Observations

Time (CDT) Temp. Windchill Dew Point Humidity Pressure Visibility Wind Dir Wind Speed Gust Speed Precip Events Conditions
12:53 AM 36.0 °F - 33.1 °F 89% 30.26 in 10.0 mi Calm Calm - N/A   Clear
1:53 AM 34.0 °F - 30.9 °F 89% 30.23 in 10.0 mi Calm Calm - N/A   Partly Cloudy
2:53 AM 41.0 °F - 37.0 °F 86% 30.19 in 10.0 mi Calm Calm - 0.00 in Rain Light Rain
3:53 AM 41.0 °F 35.2 °F 37.9 °F 89% 30.21 in 4.0 mi NW 9.2 mph - 0.09 in Rain Rain
4:53 AM 44.1 °F 40.8 °F 42.1 °F 93% 30.14 in 4.0 mi South 5.8 mph - 0.24 in Rain Rain
5:53 AM 46.0 °F 41.4 °F 44.1 °F 93% 30.14 in 4.0 mi South 9.2 mph - 0.17 in Rain Rain
6:06 AM 46.4 °F 42.4 °F 44.6 °F 93% 30.14 in 3.0 mi SSW 8.1 mph - 0.05 in Rain Rain
6:23 AM 46.4 °F - 44.6 °F 93% 30.14 in 3.0 mi Calm Calm - 0.10 in Rain Heavy Rain
6:53 AM 46.9 °F - 44.1 °F 90% 30.12 in 2.5 mi SSE 10.4 mph 16.1 mph 0.27 in Rain Heavy Rain
7:02 AM 46.4 °F 40.7 °F 44.6 °F 93% 30.09 in 3.0 mi SSE 12.7 mph 20.7 mph 0.03 in Rain Rain
7:17 AM 46.4 °F 40.7 °F 44.6 °F 93% 30.07 in 4.0 mi SSE 12.7 mph 19.6 mph 0.04 in Rain Light Rain
7:34 AM 46.4 °F 41.9 °F 44.6 °F 93% 30.07 in 5.0 mi SSE 9.2 mph - 0.05 in Rain Light Rain
7:53 AM 48.0 °F - 46.0 °F 93% 30.07 in 5.0 mi SSE 12.7 mph 19.6 mph 0.06 in Rain Light Rain
8:12 AM 48.2 °F - 46.4 °F 93% 30.05 in 4.0 mi SSE 15.0 mph 20.7 mph 0.01 in Rain Light Rain
8:43 AM 48.2 °F - 46.4 °F 93% 30.03 in 6.0 mi SSE 13.8 mph 19.6 mph 0.08 in Rain Light Rain
8:53 AM 48.9 °F - 46.9 °F 93% 30.03 in 1.5 mi SSE 15.0 mph 23.0 mph 0.15 in Rain Heavy Rain
9:02 AM 50.0 °F - 46.4 °F 87% 30.01 in 2.5 mi SSE 15.0 mph 21.9 mph 0.03 in Rain Rain
9:09 AM 50.0 °F - 48.2 °F 94% 30.01 in 3.0 mi SSE 11.5 mph 20.7 mph 0.04 in Rain Rain
9:18 AM 50.0 °F - 48.2 °F 94% 30.00 in 2.0 mi SSE 11.5 mph 21.9 mph 0.06 in Rain Rain
9:38 AM 50.0 °F - 48.2 °F 94% 29.99 in 2.5 mi SSE 12.7 mph 19.6 mph 0.11 in Rain Light Rain
9:53 AM 50.0 °F - 48.0 °F 93% 30.01 in 3.0 mi SSE 12.7 mph 19.6 mph 0.15 in Rain , Thunderstorm Light Rain
10:13 AM 50.0 °F - 48.2 °F 94% 29.97 in 4.0 mi South 11.5 mph 20.7 mph 0.01 in Rain Light Rain
10:53 AM 51.1 °F - 48.0 °F 89% 29.97 in 4.0 mi South 13.8 mph 20.7 mph 0.07 in Rain Light Rain
11:29 AM 51.8 °F - 48.2 °F 88% 29.94 in 1.8 mi South 13.8 mph - 0.06 in Rain Heavy Rain
11:45 AM 51.8 °F - 48.2 °F 88% 29.93 in 2.5 mi South 12.7 mph - 0.11 in Rain Light Rain
11:53 AM 51.1 °F - 48.9 °F 92% 29.94 in 4.0 mi South 12.7 mph - 0.12 in Rain Light Rain
12:22 PM 51.8 °F - 48.2 °F 88% 29.89 in 1.8 mi South 10.4 mph - 0.07 in Rain Heavy Rain
12:33 PM 51.8 °F - 48.2 °F 88% 29.88 in 3.0 mi South 10.4 mph - 0.08 in Rain Light Rain
12:53 PM 51.1 °F - 48.9 °F 92% 29.89 in 4.0 mi South 10.4 mph - 0.09 in Rain Light Rain
1:24 PM 51.8 °F - 48.2 °F 88% 29.85 in 3.0 mi South 10.4 mph - 0.03 in Rain Light Rain
1:53 PM 52.0 °F - 50.0 °F 93% 29.86 in 4.0 mi SSW 10.4 mph - 0.03 in Rain Light Rain
3:53 PM 54.0 °F - 52.0 °F 93% 29.79 in 3.0 mi South 6.9 mph - N/A   Overcast
4:10 PM 53.6 °F - 51.8 °F 94% 29.78 in 2.5 mi South 6.9 mph - N/A   Overcast
4:53 PM 54.0 °F - 53.1 °F 97% 29.77 in 1.2 mi SSE 4.6 mph - N/A   Overcast
5:25 PM 53.6 °F - 51.8 °F 94% 29.76 in 0.2 mi South 8.1 mph - 0.00 in Fog Fog
5:53 PM 54.0 °F - 53.1 °F 97% 29.77 in 0.2 mi South 3.5 mph - 0.00 in Fog Fog
6:50 PM 53.6 °F - 53.6 °F 100% 29.75 in 0.2 mi Calm Calm - 0.01 in Fog Fog
7:09 PM 53.6 °F - 51.8 °F 94% 29.77 in 1.2 mi SSW 3.5 mph - N/A   Overcast
7:53 PM 60.1 °F - 57.9 °F 93% 29.77 in 10.0 mi SW 11.5 mph - 0.00 in Rain Light Rain
8:09 PM 60.8 °F - 57.2 °F 88% 29.77 in 10.0 mi SW 10.4 mph - 0.00 in   Overcast
9:53 PM 61.0 °F - 59.0 °F 93% 29.76 in 9.0 mi SSW 6.9 mph - N/A   Overcast
10:07 PM 62.6 °F - 59.0 °F 88% 29.75 in 8.0 mi SW 6.9 mph - N/A   Overcast